Weather History for Moffett NAS, CA

Change the Weather History Date:

Wednesday, February 21, 2007

  Actual Average Record
Temperature  
Mean Temperature 54 °F 54 °F  
Max Temperature 59 °F 63 °F 78 °F (1985)
Min Temperature 48 °F 46 °F 32 °F (1955)
Degree Days  
Heating Degree Days 12    
Month to date heating degree days  
Since 1 July heating degree days  
Cooling Degree Days 0    
Month to date cooling degree days  
Year to date cooling degree days  
Growing Degree Days 4 (Base 50)    
Moisture  
Dew Point 43 °F    
Average Humidity 71    
Maximum Humidity 82    
Minimum Humidity 58    
Precipitation  
Precipitation 0.00 in 0.12 in 0.34 in (1979)
Month to date precipitation 2.28  
Year to date precipitation 5.03  
Since 1 July precipitation 10.08  
Sea Level Pressure  
Sea Level Pressure 30.07 in    
Wind  
Wind Speed 7 mph (SSE)    
Max Wind Speed 16 mph    
Max Gust Speed 24 mph    
Visibility 10 miles    
Events Rain    
T = Trace of Precipitation, MM = Missing Value Source: NWS Daily Summary

Daily Weather History Graph

Daily Weather History Graph

Search for Another Location

Airport:

Trip Planner

Search our weather history database for the weather conditions in past years. The results will help you decide how hot, cold, wet, or windy it might be!

Date:

Astronomy

Feb. 21, 2007 Rise Set
Actual Time 6:50 AM PST 5:53 PM PST
Civil Twilight 6:23 AM PST 6:20 PM PST
Nautical Twilight 5:53 AM PST 6:50 PM PST
Astronomical Twilight 5:23 AM PST 7:21 PM PST
Moon 8:59 AM PST (2/21) 11:08 PM PST (2/21)
Length of Visible Light 11h 56m
Length of Day
11h 03m
Waxing Crescent, 23% of the Moon is Illuminated
Feb 21
Waxing Crescent
Feb 23
First Quarter
Mar 3
Full
Mar 11
Last Quarter
Mar 18
New

Hourly Weather History & Observations

Time (PST) Temp. Dew Point Humidity Pressure Visibility Wind Dir Wind Speed Gust Speed Precip Events Conditions
12:56 AM 50.0 °F 41.0 °F 71% 30.19 in 10.0 mi South 4.6 mph - N/A   Overcast
1:56 AM 50.0 °F 42.1 °F 74% 30.18 in 10.0 mi SSE 5.8 mph - N/A   Overcast
2:56 AM 50.0 °F 43.0 °F 77% 30.16 in 10.0 mi ESE 5.8 mph - N/A   Overcast
3:42 AM 50.0 °F 42.8 °F 76% 30.15 in 10.0 mi SE 5.8 mph - 0.00 in Rain Light Rain
3:56 AM 48.9 °F 43.0 °F 80% 30.15 in 9.0 mi SE 5.8 mph - 0.00 in Rain Light Rain
4:56 AM 50.0 °F 43.0 °F 77% 30.15 in 10.0 mi SSE 4.6 mph - 0.00 in   Overcast
5:03 AM 50.0 °F 42.8 °F 76% 30.14 in 10.0 mi SSE 3.5 mph - N/A   Overcast
5:38 AM 48.2 °F 42.8 °F 82% 30.14 in 10.0 mi SE 6.9 mph - 0.00 in   Mostly Cloudy
5:56 AM 48.9 °F 43.0 °F 80% 30.14 in 10.0 mi SE 5.8 mph - 0.00 in   Overcast
6:56 AM 50.0 °F 44.1 °F 80% 30.14 in 10.0 mi SSE 4.6 mph - N/A   Overcast
7:56 AM 50.0 °F 43.0 °F 77% 30.14 in 10.0 mi SE 11.5 mph - N/A   Overcast
8:56 AM 52.0 °F 44.1 °F 74% 30.14 in 10.0 mi SE 8.1 mph - N/A   Overcast
9:56 AM 54.0 °F 44.1 °F 69% 30.12 in 10.0 mi SE 10.4 mph - N/A   Mostly Cloudy
10:56 AM 55.9 °F 44.1 °F 64% 30.12 in 10.0 mi South 12.7 mph - N/A   Mostly Cloudy
11:56 AM 59.0 °F 44.1 °F 58% 30.09 in 10.0 mi SSE 10.4 mph 17.3 mph N/A   Scattered Clouds
2:56 PM 57.9 °F 43.0 °F 58% 30.03 in 10.0 mi SSW 9.2 mph - N/A   Overcast
3:56 PM 57.9 °F 43.0 °F 58% 30.01 in 10.0 mi SSE 6.9 mph - N/A   Overcast
4:56 PM 57.0 °F 43.0 °F 59% 29.99 in 10.0 mi Variable 5.8 mph - N/A   Overcast
5:56 PM 55.9 °F 43.0 °F 62% 29.97 in 10.0 mi SSE 3.5 mph - N/A   Mostly Cloudy
6:56 PM 55.0 °F 44.1 °F 67% 29.96 in 10.0 mi ESE 5.8 mph - N/A   Partly Cloudy
7:56 PM 55.0 °F 44.1 °F 67% 29.94 in 10.0 mi South 11.5 mph 18.4 mph N/A   Clear
8:56 PM 54.0 °F 44.1 °F 69% 29.96 in 10.0 mi SSW 6.9 mph - N/A   Clear
9:56 PM 53.1 °F 45.0 °F 74% 29.96 in 10.0 mi SE 5.8 mph - N/A   Mostly Cloudy
10:56 PM 54.0 °F 44.1 °F 69% 29.91 in 10.0 mi SSE 10.4 mph 18.4 mph N/A   Mostly Cloudy
11:56 PM 53.1 °F 45.0 °F 74% 29.89 in 10.0 mi SSE 16.1 mph 24.2 mph 0.00 in   Overcast